Location: T. Spence Memorial Observatory
(32.7356°N, 82.2098°W)
Time: 15:50:45
(UTC-04:00)

Daily predictions for brighter satellites

Satellite Brightness Start Highest point End
(mag) Time Altitude Azimuth Time Altitude Azimuth Time Altitude Azimuth
Cosmos 2061 Rocket 4.3 20:46:12 10° S 20:52:35 80° W 20:58:56 10° N
Cosmos 1763 Rocket 4.4 20:51:17 10° SSE 20:55:50 29° E 21:00:22 10° NE
Cosmos 304 Rocket 3.9 20:51:05 10° SSW 20:55:53 88° W 21:00:43 10° NNE
Cosmos 2360 4.3 20:51:59 10° NNW 20:57:41 73° ENE 21:03:23 10° SSE
Cosmos 1697 Rocket 3.5 20:57:07 10° NNW 21:02:37 54° WSW 21:08:04 10° S
Okean 3 3.7 20:58:47 10° S 21:03:04 75° W 21:07:21 10° N
Cosmos 1725 Rocket 4.0 20:58:18 10° S 21:04:26 77° E 21:10:38 10° N
Cosmos 1536 4.5 21:01:57 10° NNW 21:05:43 37° W 21:09:27 10° SSW
deb Kosmos-1763 4.1 21:02:23 10° S 21:05:59 56° ESE 21:09:37 10° NNE
Cosmos 1500 3.2 21:02:31 10° N 21:06:24 89° WSW 21:10:15 10° S
Cosmos 1378 Rocket 3.5 21:02:44 10° S 21:07:02 73° E 21:11:20 10° N
BREEZE-M DEB (TANK) 3.2 21:07:12 10° NNW 21:09:43 22° NNE 21:11:26 10° E
Cosmos 1674 Rocket 4.4 21:05:34 10° SSW 21:09:56 57° W 21:14:20 10° N
BREEZE-M DEB (TANK) 4.1 21:08:52 10° N 21:10:44 20° NE 21:13:34 10° E
Delta 7925 Rocket 3.9 21:07:24 10° WSW 21:11:58 38° S 21:15:50 12° ESE
NOSS 3-2 (A) 4.3 21:06:31 10° SW 21:12:09 53° NW 21:18:20 10° NNE
Cosmos 1975 Rocket 3.7 21:08:20 10° SSE 21:12:16 35° E 21:16:11 10° NNE
Tsikada Rocket 4.2 21:06:30 10° N 21:12:50 59° E 21:19:08 10° SSE
Atlas Centaur 2 1.5 21:08:57 10° W 21:13:03 51° S 21:16:08 13° ESE
ERS-2 2.5 21:09:58 10° SSE 21:13:31 47° ENE 21:17:04 10° N
Cosmos 2360 Rocket 4.2 21:11:33 10° NNE 21:13:34 12° NE 21:15:34 10° ENE
SJ-6B 3.4 21:11:21 10° S 21:14:59 53° W 21:18:39 10° NNW
USA 186 1.7 21:12:53 10° SSE 21:16:03 87° ENE 21:19:25 10° N
USA 234 3.2 21:10:10 10° NE 21:16:42 67° SE 21:23:13 10° SSW
Cosmos 1980 Rocket 2.4 21:11:12 10° NNW 21:16:52 75° WSW 21:22:31 10° SSE
IUS-9 SRM-1 3.8 21:15:14 10° WSW 21:18:39 47° S 21:32:08 10° ESE
NOSS 3-2 (C) 3.8 21:13:03 10° SW 21:18:48 68° WNW 21:25:08 10° NNE
Okean 1 Rocket 3.0 21:14:39 10° N 21:18:59 67° E 21:23:16 10° SSE
Cosmos 1975 3.2 21:16:44 10° N 21:20:36 44° E 21:24:04 12° SSE
Cosmos 1666 3.4 21:17:18 10° NNE 21:20:54 36° E 21:23:46 14° SE
Cosmos 2084 4.0 21:17:17 10° SW 21:21:39 64° WNW 21:25:48 10° NNE
Tiangong 2 4.0 21:20:25 10° NW 21:22:30 16° NNW 21:24:35 10° NNE
Cosmos 292 Rocket 4.4 21:22:29 10° SSE 21:26:46 35° E 21:31:05 10° NE
ATLAS CENTAUR R/B 3.9 21:23:01 10° SW 21:28:06 78° NW 21:43:34 10° NE
GPS 2-04 Rocket1 3.6 21:24:35 10° W 21:28:29 39° SSW 21:31:18 17° SE
CENTAUR R/B 2.3 21:29:19 10° SSW 21:34:58 67° ESE 21:41:24 10° NE
Iridium 2 4.1 21:33:21 17° SSE 21:35:58 41° E 21:39:35 10° NNE
Cosmos 1743 2.8 21:32:30 10° N 21:36:14 53° E 21:38:41 20° SSE
ATLAS CENTAUR R/B 3.2 21:34:14 10° NW 21:38:24 32° WSW 21:42:42 10° S
ELECTRON R/B 4.4 21:38:43 10° N 21:41:11 57° E 21:41:53 37° SE
Cosmos 2233 Rocket 4.0 21:35:49 10° S 21:41:57 85° W 21:48:11 10° N
Cosmos 1814 Rocket 3.9 21:36:59 10° SSW 21:42:12 81° ESE 21:47:31 10° NNE
Cosmos 1898 Rocket 3.6 21:38:10 10° N 21:43:28 67° ENE 21:47:10 20° SSE
Meteor 1-12 Rocket 4.3 21:38:29 10° N 21:44:28 74° E 21:49:38 14° SSE
Resurs 01 Rocket 2.0 21:44:55 10° S 21:49:13 62° WSW 21:53:35 10° NNW
Cosmos 1833 4.2 21:43:42 10° S 21:49:19 58° ESE 21:54:55 10° NNE
H-2A R/B 3.0 21:48:25 22° ESE 21:50:24 28° ENE 21:54:39 10° NNE
Meteor 2-4 Rocket 3.6 21:46:23 10° S 21:51:42 63° E 21:57:10 10° NNE
Cosmos 990 Rocket 4.1 21:50:56 10° N 21:56:07 62° ENE 21:58:52 27° SE
ARGOS 3.5 21:56:26 26° SE 21:59:07 48° ENE 22:04:16 10° N
Lacrosse 5 rocket 3.6 21:58:05 10° N 22:00:34 15° NE 22:02:25 12° ENE
Cosmos 1515 4.3 22:00:43 35° ESE 22:01:02 36° E 22:04:34 10° NNE
Aureole 2 Rocket 3.6 21:58:54 10° NNE 22:00:42 21° NE 22:00:42 21° NE
NOAA 11 4.4 21:58:22 14° S 22:03:02 69° WSW 22:08:29 10° NNW
Skynet4D Del rocket 4.3 22:02:34 10° SW 22:08:23 36° SSE 22:09:45 32° SE
Cosmos 2322 Rocket 2.1 22:03:30 10° NNW 22:09:08 89° ENE 22:12:02 30° SSE
Cosmos 1242 Rocket 3.4 22:09:56 10° NNW 22:13:25 45° W 22:15:05 25° SSW
SL-16 R/B 2.4 22:13:40 10° NNW 22:19:18 70° WSW 22:22:11 30° S
Cosmos 1340 Rocket 3.0 22:18:27 26° SSW 22:20:36 70° W 22:24:40 10° N
Cosmos 2150 Rocket 3.9 22:18:51 10° NNW 22:24:13 79° ENE 22:25:55 44° SSE
MetOp-B 4.1 22:23:56 41° SSE 22:25:48 73° ENE 22:31:08 10° N
Cosmos 540 Rocket 3.4 22:22:41 20° SSW 22:26:21 89° ESE 22:31:33 10° NNE
Cosmos 1025 Rocket 4.3 22:27:27 27° ENE 22:27:27 27° ENE 22:30:19 10° NNE
Cosmos 1513 Rocket 4.3 22:23:27 26° S 22:27:06 82° E 22:33:16 10° N
Mugunghwa Rocket 4.5 22:20:16 10° WSW 22:27:17 55° S 22:30:25 35° ESE
GPS 2-05 Rocket1 3.0 22:24:04 10° WSW 22:26:55 62° W 22:26:55 62° W
Cosmos 2034 Rocket 3.9 22:29:18 35° SSE 22:31:58 71° E 22:38:06 10° N
Cosmos 2219 4.0 22:34:43 34° E 22:34:43 34° E 22:39:09 10° NE
Cosmos 1464 Rocket 4.1 22:30:00 19° S 22:34:45 78° W 22:41:10 10° N
SPOT 5 3.4 22:37:55 38° ENE 22:37:55 38° ENE 22:41:55 10° N
USA 245 3.6 22:38:32 51° NE 22:38:32 51° NE 22:42:01 10° N
Terra 3.5 22:38:20 20° ENE 22:38:20 20° ENE 22:41:25 10° NNE
Cosmos 1937 Rocket 4.2 22:34:39 10° NNW 22:39:34 47° WSW 22:41:34 31° SSW
Cosmos 1455 Rocket 3.5 22:39:10 10° NNW 22:43:26 56° W 22:44:20 46° SW
Cosmos 2298 Rocket 4.5 22:40:14 10° NNW 22:45:24 55° WSW 22:46:59 40° SSW
Helios 1A 3.4 22:51:28 52° NE 22:51:28 52° NE 22:54:54 10° N
Okean 2 3.7 22:52:12 61° NNE 22:52:12 61° NNE 22:55:42 10° N
Meteor 1-15 Rocket 4.1 22:46:00 10° N 22:51:43 79° E 22:52:34 64° SSE
DELTA 2 R/B (1) 3.4 22:46:42 10° WSW 22:52:14 77° SSE 22:53:21 57° E
CZ-2C R/B 4.3 22:53:28 10° NE 22:56:06 21° ENE 22:56:06 21° ENE
Cosmos 2360 Rocket 2.1 22:52:33 10° NNW 22:58:13 83° WSW 22:58:58 67° S
Cosmos 1634 Rocket 4.4 22:58:16 44° E 22:58:16 44° E 23:04:10 10° NNE
Cosmos 372 Rocket 4.0 22:53:34 10° N 22:58:30 60° ENE 22:58:30 60° ENE
BREEZE M DEB (TANK) 2.7 22:52:35 10° NW 22:58:38 65° NNW 22:58:38 65° NNW
Tiangong 2 4.0 22:58:17 10° NNW 23:00:04 14° N 23:00:16 14° N
Atlas Centaur 2 3.9 22:58:40 10° WSW 22:58:46 10° WSW 22:58:46 10° WSW
Cosmos 2219 Rocket 3.4 22:56:50 10° N 23:01:32 27° ENE 23:01:38 27° ENE
Cosmos 1356 Rocket 4.0 23:05:19 56° N 23:05:19 56° N 23:08:45 10° N
COSMOS 2455 4.5 23:10:58 20° ENE 23:10:58 20° ENE 23:13:15 10° NE
ERS-1 Rocket 3.3 23:07:42 52° SW 23:08:13 54° W 23:13:08 10° NNW
CZ-2C R/B 4.0 23:16:09 38° ENE 23:16:09 38° ENE 23:20:44 10° N
Nimbus 7 Rocket 4.5 23:11:39 10° NNE 23:16:59 60° ENE 23:16:59 60° ENE
Helios 1B rocket 3.4 23:16:09 10° N 23:19:16 45° NNW 23:19:16 45° NNW
SJ 16-02 2.2 23:16:59 10° NNW 23:20:27 48° NW 23:20:27 48° NW
SPOT 1/Viking Rocket 3.8 23:26:20 63° W 23:26:20 63° W 23:31:12 10° NNW
Cosmos 2333 Rocket 3.0 23:22:47 10° N 23:27:41 40° NE 23:27:41 40° NE
H-2A R/B 3.6 23:29:02 24° WSW 23:29:44 25° W 23:33:47 10° NW
COSMOS 2428 2.8 23:25:30 10° NNW 23:30:38 67° NNE 23:30:38 67° NNE
CZ-4C R/B 3.1 23:27:13 10° NNW 23:34:37 63° ENE 23:35:47 57° E
Cosmos 1125 Rocket 4.1 23:33:39 10° NNW 23:38:03 53° WNW 23:38:03 53° WNW
Lacrosse 5 rocket 3.3 23:36:03 10° NW 23:38:05 27° NW 23:38:05 27° NW
Cosmos 2297 Rocket 3.5 23:44:24 30° NE 23:44:24 30° NE 23:47:20 10° NNE
Cosmos 2227 Rocket 3.3 23:47:43 36° NE 23:47:43 36° NE 23:51:05 10° NNE
Cosmos 1092 Rocket 4.0 23:39:34 10° N 23:45:54 72° W 23:45:54 72° W
